Regional Weather Roundup
Issued by NWS Goodland, KS

Home | Current Version | Previous Version | Graphics & Text | Print | Product List | Glossary On
Versions: 1 2 3 4 5 6 7 8 9 10 11 12 13 14 15 16 17 18 19 20 21 22 23 24 25 26 27 28 29 30 31 32 33 34 35 36 37 38 39 40 41 42 43 44 45 46 47 48 49 50
000
ASUS43 KGLD 102259
RWRGLD

GOODLAND FORECAST AREA HOURLY WEATHER ROUNDUP
NATIONAL WEATHER SERVICE GOODLAND KS
400 PM MST SUN DEC 10 2017

...OFFICIAL OBSERVATIONS...

CITY           SKY/WX    TMP DP  RH WIND       PRES   REMARKS
GOODLAND KS    CLEAR     54   3  12 NW7       30.28S
HILL CITY KS   CLEAR     62  15  16 W6        30.22F
IMPERIAL NEB   CLEAR     57   3  11 NW7       30.24F
MCCOOK NEB     CLEAR     57   9  14 W7        30.21F
AKRON CO       CLEAR     52  -5   9 W8        30.30F
BURLINGTON CO  CLEAR     56   1  10 N3        30.31F
LIMON CO       CLEAR     52  -6   9 S9        30.34S
$$

...UNOFFICIAL OBSERVATIONS...

CITY           SKY/WX    TMP DP  RH WIND       PRES   REMARKS
LENORA KS        N/A     61  32  33 W5          N/A
NORTON KS      CLEAR     57   1  10 W9        30.20
SHARON SPRINGS   N/A     59   7  12 CALM        N/A
TRENTON NEB      N/A     57  32  39 CALM        N/A
KIT CARSON CO    N/A     65  11  12 CALM        N/A
YUMA CO        FAIR      52   3  14 W5        30.29F
$$



USA.gov is the U.S. government's official web portal to all federal, state and local government web resources and services.